Satellite: NOAA-17
Catalog number: 27453
Epoch time:      05132.44567338
Element set:     371
Inclination:      098.6608 deg
RA of node:       206.4974 deg
Eccentricity:    0.0012542
Arg of perigee:   155.7652 deg
Mean anomaly:     204.4138 deg
Mean motion:   14.23662727 rev/day
Decay rate:       3.63e-06 rev/day^2
Epoch rev:           14975
Checksum:              315

/EX
SB KEPS @ AMSAT  $ORB05132.M
Orbital Elements  05132.MISC

HR AMSAT ORBITAL ELEMENTS FOR MANNED AND MISCELLANEOUS SATELLITES
FROM WA5QGD FORT WORTH,TX May 12, 2005
SEND SUBSCRIBE/UNSUBSCRIBE TO majordomo@amsat.org ONLY
BID: ORB05132.M
TO ALL RADIO AMATEURS BT

Satellite: HUBBLE
Catalog number: 20580
Epoch time:      05131.39027196
Element set:     334
Inclination:      028.4663 deg
RA of node:       148.5359 deg
Eccentricity:    0.0003983
Arg of perigee:   238.6613 deg
Mean anomaly:     121.3586 deg
Mean motion:   14.99703604 rev/day
Decay rate:      1.099e-05 rev/day^2
Epoch rev:           62471
Checksum:              304

Satellite: UARS
Catalog number: 21701
Epoch time:      05131.76778907
Element set:    0443
Inclination:      056.9822 deg
RA of node:       337.6847 deg
Eccentricity:    0.0003861
Arg of perigee:   100.9160 deg
Mean anomaly:     259.2218 deg
Mean motion:   15.03819002 rev/day
Decay rate:        3.0e-07 rev/day^2
Epoch rev:           74801
Checksum:              279

Satellite: PO-34
Catalog number: 25520
Epoch time:      05131.91077863
Element set:    0197
Inclination:      028.4582 deg
RA of node:       194.8183 deg
Eccentricity:    0.0005746
Arg of perigee:   186.0058 deg
Mean anomaly:     174.0442 deg
Mean motion:   15.16256274 rev/day
Decay rate:      1.623e-05 rev/day^2
Epoch rev:           36107
Checksum:              301

Satellite: ISS
Catalog number: 25544
Epoch time:      05132.97377256
Element set:     461
Inclination:      051.6439 deg
RA of node:       081.2424 deg
Eccentricity:    0.0005815
Arg of perigee:   117.6498 deg
Mean anomaly:     355.9045 deg
Mean motion:   15.71573880 rev/day
Decay rate:    2.54190e-03 rev/day^2
Epoch rev:           37014
Checksum:              310

Satellite: WO-39
Catalog number: 26061
Epoch time:      03303.41062303
Element set:     973
Inclination:      100.1904 deg
RA of node:       047.3011 deg
Eccentricity:    0.0034615
Arg of perigee:   281.6926 deg
Mean anomaly:     078.0378 deg
Mean motion:   14.38082544 rev/day
Decay rate:      2.252e-05 rev/day^2
Epoch rev:           19701
Checksum:              268

Satellite: OO-38
Catalog number: 26063
Epoch time:      05131.60980027
Element set:    0347
Inclination:      100.2212 deg
RA of node:       344.9542 deg
Eccentricity:    0.0037249
Arg of perigee:   157.8829 deg
Mean anomaly:     202.3968 deg
Mean motion:   14.35715932 rev/day
Decay rate:        1.8e-07 rev/day^2
Epoch rev:           27705
Checksum:              299

Satellite: NO-45
Catalog number: 26932
Epoch time:      05132.74498539
Element set:      29
Inclination:      067.0588 deg
RA of node:       318.7326 deg
Eccentricity:    0.0008119
Arg of perigee:   249.3086 deg
Mean anomaly:     110.7133 deg
Mean motion:   14.29483348 rev/day
Decay rate:        6.6e-07 rev/day^2
Epoch rev:           18873
Checksum:              329

/EX




----
Via the keps mailing list at AMSAT.ORG courtesy of AMSAT-NA.
To unsubscribe, send "unsubscribe keps" to Majordomo@amsat.org

--- ViaMAIL!/WC v1.60d
 * Origin: Chowdanet (401-331-0615) telnet://chowdanet.com  (1:323/120)